Location: Praha
(50.0830°N, 14.4670°E)
Time: 04:49:08
(UTC+02:00)

ISS - Pass Details

Date: 02 April 2020
Orbit: 417 x 423 km, 51.6° (Epoch: 29 March)

Event Time Altitude Azimuth Distance (km) Brightness Sun altitude
Rises 21:47:32 0° 282° (WNW) 2,361 1.2 -20.1°
Reaches altitude 10° 21:50:13 10° 260° (W) 1,494 -0.4 -20.4°
Maximum altitude 21:52:18 16° 221° (SW) 1,197 -1.4 -20.7°
Enters shadow 21:52:21 16° 220° (SW) 1,197 -1.4 -20.7°
